URMT Weather Reports


Display with metric or nautical units.
time (UTC)temp
F
wind
direction
speed
MPH
gust
MPH
rain 1hr
in
rain 24hr
in
rain mn
in
humidity
%
barometer
mb
20260502123053 37 30 7.0 0.0 0.00 0.00 0.00 10 1020.0
20260502113050 37 30 7.0 0.0 0.00 0.00 0.00 93 1020.0
20260502110051 37 20 7.0 0.0 0.00 0.00 0.00 93 1020.0
20260502103051 39 30 7.0 0.0 0.00 0.00 0.00 93 1019.0
20260502070052 33 30 9.0 0.0 0.00 0.00 0.00 10 1019.0
20260502063053 33 10 7.0 0.0 0.00 0.00 0.00 10 1018.0
20260502060051 33 10 7.0 0.0 0.00 0.00 0.00 10 1018.0
20260502053051 32 360 7.0 0.0 0.00 0.00 0.00 10 1018.0
20260502050052 32 360 7.0 0.0 0.00 0.00 0.00 10 1018.0
20260502043051 32 10 7.0 0.0 0.00 0.00 0.00 10 1018.0
20260502040053 32 10 4.0 0.0 0.00 0.00 0.00 10 1018.0
20260502033051 32 10 4.0 0.0 0.00 0.00 0.00 10 1018.0
20260502030051 32 30 4.0 0.0 0.00 0.00 0.00 10 1017.0
20260502023051 32 30 4.0 0.0 0.00 0.00 0.00 10 1017.0
20260502020055 32 30 7.0 0.0 0.00 0.00 0.00 10 1017.0
20260502013051 33 20 9.0 0.0 0.00 0.00 0.00 10 1017.0
20260502010052 33 20 9.0 0.0 0.00 0.00 0.00 10 1017.0
20260502003052 35 20 9.0 0.0 0.00 0.00 0.00 10 1016.0
20260502000051 35 50 13.0 0.0 0.00 0.00 0.00 10 1016.0
20260501233054 35 60 13.0 0.0 0.00 0.00 0.00 10 1016.0
20260501230052 35 70 13.0 0.0 0.00 0.00 0.00 10 1016.0
20260501223053 35 70 11.0 0.0 0.00 0.00 0.00 10 1016.0
20260501220051 35 60 13.0 0.0 0.00 0.00 0.00 10 1016.0
20260501213052 35 60 13.0 0.0 0.00 0.00 0.00 10 1017.0
20260501210052 37 50 9.0 0.0 0.00 0.00 0.00 93 1017.0
20260501203052 37 70 13.0 0.0 0.00 0.00 0.00 10 1016.0
20260501200052 37 70 16.0 0.0 0.00 0.00 0.00 93 1016.0
20260501193054 37 80 16.0 0.0 0.00 0.00 0.00 10 1016.0
20260501190052 37 70 16.0 0.0 0.00 0.00 0.00 10 1016.0
20260501183056 37 70 13.0 0.0 0.00 0.00 0.00 10 1016.0
20260501180052 37 60 16.0 0.0 0.00 0.00 0.00 10 1016.0
20260501173052 37 60 16.0 0.0 0.00 0.00 0.00 10 1016.0
20260501170053 39 60 13.0 0.0 0.00 0.00 0.00 93 1016.0
20260501163054 39 60 11.0 0.0 0.00 0.00 0.00 93 1016.0
20260501160054 39 60 9.0 0.0 0.00 0.00 0.00 93 1016.0
20260501153052 39 60 13.0 0.0 0.00 0.00 0.00 93 1016.0
20260501150052 39 60 13.0 0.0 0.00 0.00 0.00 93 1016.0
20260501143053 39 50 16.0 0.0 0.00 0.00 0.00 93 1016.0